| time (UTC) | temp C | wind direction | speed KPH | gust KPH | rain 1hr cm | rain 24hr cm | rain mn cm | humidity % | barometer mb |
| 20260506132053 | 11 | 2 | 6.4 | 17.7 | 0.00 | 0.00 | 0.00 | 79 | 1013.9 |
| 20260506131540 | 11 | 342 | 4.8 | 20.9 | 0.00 | 0.00 | 0.00 | 79 | 1013.8 |
| 20260506131022 | 11 | 2 | 9.7 | 20.9 | 0.00 | 0.00 | 0.00 | 79 | 1013.6 |
| 20260506130543 | 11 | 54 | 6.4 | 17.7 | 0.00 | 0.00 | 0.00 | 79 | 1013.5 |
| 20260506130027 | 11 | 29 | 6.4 | 17.7 | 0.00 | 0.00 | 0.00 | 79 | 1013.4 |
| 20260506125545 | 11 | 51 | 6.4 | 20.9 | 0.00 | 0.00 | 0.00 | 79 | 1013.5 |
| 20260506125047 | 11 | 3 | 8.0 | 20.9 | 0.00 | 0.00 | 0.00 | 78 | 1013.0 |
| 20260506124533 | 11 | 343 | 4.8 | 19.3 | 0.00 | 0.00 | 0.00 | 78 | 1013.1 |
| 20260506124024 | 11 | 41 | 9.7 | 19.3 | 0.00 | 0.00 | 0.00 | 78 | 1013.3 |
| 20260506123533 | 11 | 345 | 9.7 | 19.3 | 0.00 | 0.00 | 0.00 | 78 | 1013.3 |
| 20260506123024 | 11 | 41 | 4.8 | 14.5 | 0.00 | 0.00 | 0.00 | 78 | 1013.3 |
| 20260506122533 | 11 | 17 | 3.2 | 12.9 | 0.00 | 0.00 | 0.00 | 77 | 1013.3 |
| 20260506122020 | 11 | 341 | 0.0 | 22.5 | 0.00 | 0.00 | 0.00 | 77 | 1013.2 |
| 20260506121528 | 11 | 349 | 8.0 | 22.5 | 0.00 | 0.00 | 0.00 | 76 | 1013.0 |
| 20260506121037 | 11 | 349 | 6.4 | 22.5 | 0.00 | 0.00 | 0.00 | 76 | 1012.9 |
| 20260506120522 | 12 | 357 | 9.7 | 22.5 | 0.00 | 0.00 | 0.00 | 75 | 1013.2 |
| 20260506120025 | 12 | 360 | 11.3 | 20.9 | 0.00 | 0.00 | 0.00 | 75 | 1012.9 |
| 20260506115549 | 12 | 350 | 4.8 | 19.3 | 0.00 | 0.00 | 0.00 | 74 | 1012.9 |
| 20260506115100 | 12 | 20 | 4.8 | 19.3 | 0.00 | 0.00 | 0.00 | 74 | 1012.9 |
| 20260506114526 | 12 | 341 | 4.8 | 25.7 | 0.00 | 0.00 | 0.00 | 73 | 1012.9 |
| 20260506114029 | 12 | 35 | 8.0 | 25.7 | 0.00 | 0.00 | 0.00 | 73 | 1012.7 |
| 20260506113533 | 12 | 358 | 4.8 | 22.5 | 0.00 | 0.00 | 0.00 | 73 | 1012.5 |
| 20260506113107 | 12 | 27 | 8.0 | 22.5 | 0.00 | 0.00 | 0.00 | 72 | 1012.4 |
| 20260506112533 | 12 | 9 | 6.4 | 19.3 | 0.00 | 0.00 | 0.00 | 72 | 1012.4 |
| 20260506112042 | 12 | 335 | 3.2 | 22.5 | 0.00 | 0.00 | 0.00 | 71 | 1012.3 |
| 20260506111542 | 12 | 316 | 11.3 | 22.5 | 0.00 | 0.00 | 0.00 | 71 | 1012.2 |
| 20260506111024 | 12 | 36 | 8.0 | 19.3 | 0.00 | 0.00 | 0.00 | 71 | 1011.9 |
| 20260506110528 | 12 | 31 | 3.2 | 20.9 | 0.00 | 0.00 | 0.00 | 71 | 1012.0 |
| 20260506110039 | 12 | 341 | 6.4 | 20.9 | 0.00 | 0.00 | 0.00 | 71 | 1011.9 |
| 20260506105525 | 13 | 349 | 3.2 | 14.5 | 0.00 | 0.00 | 0.00 | 71 | 1011.9 |
| 20260506105052 | 13 | 339 | 3.2 | 17.7 | 0.00 | 0.00 | 0.00 | 71 | 1011.8 |
| 20260506104520 | 13 | 22 | 4.8 | 17.7 | 0.00 | 0.00 | 0.00 | 71 | 1011.7 |
| 20260506104058 | 13 | 336 | 3.2 | 16.1 | 0.00 | 0.00 | 0.00 | 71 | 1011.6 |
| 20260506103523 | 13 | 347 | 4.8 | 16.1 | 0.00 | 0.00 | 0.00 | 71 | 1011.7 |
| 20260506103025 | 13 | 318 | 4.8 | 16.1 | 0.00 | 0.00 | 0.00 | 70 | 1011.5 |
| 20260506102531 | 13 | 345 | 4.8 | 20.9 | 0.00 | 0.00 | 0.00 | 71 | 1011.4 |
| 20260506102034 | 13 | 358 | 4.8 | 20.9 | 0.00 | 0.00 | 0.00 | 71 | 1011.4 |
| 20260506101522 | 13 | 322 | 4.8 | 16.1 | 0.00 | 0.00 | 0.00 | 71 | 1011.2 |
| 20260506101057 | 13 | 11 | 3.2 | 16.1 | 0.00 | 0.00 | 0.00 | 71 | 1011.0 |
| 20260506100542 | 13 | 7 | 4.8 | 16.1 | 0.00 | 0.00 | 0.00 | 71 | 1010.9 |
| 20260506100030 | 13 | 347 | 3.2 | 12.9 | 0.00 | 0.00 | 0.00 | 71 | 1011.0 |
| 20260506095553 | 13 | 349 | 3.2 | 22.5 | 0.00 | 0.00 | 0.00 | 71 | 1010.9 |
| 20260506095039 | 13 | 338 | 1.6 | 22.5 | 0.00 | 0.00 | 0.00 | 71 | 1010.8 |
| 20260506094546 | 13 | 345 | 4.8 | 14.5 | 0.00 | 0.00 | 0.00 | 71 | 1010.8 |
| 20260506094028 | 13 | 338 | 1.6 | 9.7 | 0.00 | 0.00 | 0.00 | 71 | 1010.8 |
| 20260506093541 | 13 | 339 | 3.2 | 11.3 | 0.00 | 0.00 | 0.00 | 71 | 1010.8 |
| 20260506093029 | 13 | 347 | 3.2 | 11.3 | 0.00 | 0.00 | 0.00 | 71 | 1010.7 |
| 20260506092533 | 13 | 335 | 1.6 | 11.3 | 0.00 | 0.00 | 0.00 | 71 | 1010.6 |
| 20260506092025 | 13 | 358 | 3.2 | 11.3 | 0.00 | 0.00 | 0.00 | 71 | 1010.6 |
| 20260506091529 | 13 | 360 | 1.6 | 12.9 | 0.00 | 0.00 | 0.00 | 71 | 1010.6 |
| 20260506091102 | 13 | 337 | 3.2 | 19.3 | 0.00 | 0.00 | 0.00 | 71 | 1010.5 |
| 20260506090531 | 13 | 340 | 1.6 | 19.3 | 0.00 | 0.00 | 0.00 | 71 | 1010.6 |
| 20260506090036 | 13 | 38 | 1.6 | 8.0 | 0.00 | 0.00 | 0.00 | 71 | 1010.6 |
| 20260506085542 | 13 | 347 | 1.6 | 11.3 | 0.00 | 0.00 | 0.00 | 71 | 1010.5 |
| 20260506085050 | 14 | 336 | 3.2 | 11.3 | 0.00 | 0.00 | 0.00 | 72 | 1010.3 |
| 20260506084558 | 14 | 333 | 3.2 | 16.1 | 0.00 | 0.00 | 0.00 | 72 | 1010.4 |
| 20260506084029 | 14 | 351 | 3.2 | 16.1 | 0.00 | 0.00 | 0.00 | 72 | 1010.2 |
| 20260506083531 | 14 | 10 | 3.2 | 14.5 | 0.00 | 0.00 | 0.00 | 72 | 1010.2 |
| 20260506083030 | 14 | 341 | 3.2 | 17.7 | 0.00 | 0.00 | 0.00 | 72 | 1010.1 |
| 20260506082536 | 14 | 2 | 3.2 | 17.7 | 0.00 | 0.00 | 0.00 | 72 | 1010.1 |
| 20260506082024 | 14 | 7 | 6.4 | 16.1 | 0.00 | 0.00 | 0.00 | 72 | 1010.2 |
| 20260506081536 | 14 | 24 | 6.4 | 17.7 | 0.00 | 0.00 | 0.00 | 72 | 1010.2 |
| 20260506081027 | 14 | 355 | 3.2 | 17.7 | 0.00 | 0.00 | 0.00 | 72 | 1010.1 |
| 20260506080529 | 14 | 22 | 4.8 | 16.1 | 0.00 | 0.00 | 0.00 | 72 | 1010.2 |
| 20260506073024 | 15 | 14 | 4.8 | 14.5 | 0.00 | 0.00 | 0.00 | 73 | 1009.7 |
| 20260506072529 | 15 | 22 | 6.4 | 17.7 | 0.00 | 0.00 | 0.00 | 73 | 1009.5 |
| 20260506072033 | 15 | 36 | 6.4 | 17.7 | 0.00 | 0.00 | 0.00 | 73 | 1009.5 |
| 20260506071537 | 15 | 36 | 8.0 | 12.9 | 0.00 | 0.00 | 0.00 | 73 | 1009.5 |
| 20260506071024 | 15 | 29 | 4.8 | 20.9 | 0.00 | 0.00 | 0.00 | 73 | 1009.6 |
| 20260506070531 | 15 | 360 | 11.3 | 20.9 | 0.00 | 0.00 | 0.00 | 72 | 1009.7 |
| 20260506062026 | 15 | 348 | 8.0 | 17.7 | 0.00 | 0.00 | 0.00 | 73 | 1009.8 |
| 20260506061534 | 15 | 353 | 1.6 | 19.3 | 0.00 | 0.00 | 0.00 | 73 | 1009.6 |
| 20260506061054 | 15 | 6 | 4.8 | 20.9 | 0.00 | 0.00 | 0.00 | 73 | 1009.7 |
| 20260506060539 | 15 | 3 | 3.2 | 19.3 | 0.00 | 0.00 | 0.00 | 73 | 1009.7 |
| 20260506051024 | 16 | 347 | 1.6 | 9.7 | 0.00 | 0.00 | 0.00 | 74 | 1009.9 |
| 20260506050529 | 16 | 16 | 3.2 | 17.7 | 0.00 | 0.00 | 0.00 | 74 | 1010.0 |
| 20260506050103 | 16 | 350 | 4.8 | 19.3 | 0.00 | 0.00 | 0.00 | 74 | 1010.0 |
| 20260506045034 | 16 | 21 | 6.4 | 17.7 | 0.00 | 0.00 | 0.00 | 74 | 1009.8 |
| 20260506044541 | 16 | 327 | 3.2 | 17.7 | 0.00 | 0.00 | 0.00 | 74 | 1009.6 |
| 20260506044043 | 16 | 7 | 3.2 | 17.7 | 0.00 | 0.00 | 0.00 | 74 | 1009.6 |
| 20260506043526 | 16 | 1 | 6.4 | 20.9 | 0.00 | 0.00 | 0.00 | 74 | 1009.7 |
| 20260506043026 | 16 | 349 | 8.0 | 20.9 | 0.00 | 0.00 | 0.00 | 74 | 1009.7 |
| 20260506042538 | 16 | 29 | 4.8 | 16.1 | 0.00 | 0.00 | 0.00 | 74 | 1009.6 |
| 20260506042028 | 16 | 15 | 1.6 | 12.9 | 0.00 | 0.00 | 0.00 | 74 | 1009.6 |
| 20260506041604 | 16 | 11 | 3.2 | 17.7 | 0.00 | 0.00 | 0.00 | 74 | 1009.6 |
| 20260506041030 | 17 | 326 | 8.0 | 17.7 | 0.00 | 0.00 | 0.00 | 73 | 1009.6 |
| 20260506040533 | 17 | 354 | 6.4 | 24.1 | 0.00 | 0.00 | 0.00 | 73 | 1009.6 |
| 20260506040033 | 17 | 6 | 3.2 | 24.1 | 0.00 | 0.00 | 0.00 | 73 | 1009.5 |
| 20260506035541 | 17 | 328 | 1.6 | 16.1 | 0.00 | 0.00 | 0.00 | 73 | 1009.5 |
| 20260506035044 | 17 | 18 | 3.2 | 14.5 | 0.00 | 0.00 | 0.00 | 73 | 1009.3 |
| 20260506034552 | 17 | 337 | 3.2 | 20.9 | 0.00 | 0.00 | 0.00 | 73 | 1009.3 |
| 20260506034040 | 17 | 355 | 3.2 | 22.5 | 0.00 | 0.00 | 0.00 | 73 | 1009.1 |
| 20260506033525 | 17 | 348 | 4.8 | 22.5 | 0.00 | 0.00 | 0.00 | 72 | 1008.9 |
| 20260506033047 | 17 | 355 | 9.7 | 19.3 | 0.00 | 0.00 | 0.00 | 72 | 1008.9 |
| 20260506032536 | 17 | 3 | 4.8 | 16.1 | 0.00 | 0.00 | 0.00 | 72 | 1008.5 |
| 20260506032041 | 18 | 337 | 6.4 | 22.5 | 0.00 | 0.00 | 0.00 | 71 | 1008.6 |
| 20260506031546 | 18 | 335 | 8.0 | 22.5 | 0.00 | 0.00 | 0.00 | 71 | 1008.7 |
| 20260506031047 | 18 | 15 | 4.8 | 22.5 | 0.00 | 0.00 | 0.00 | 71 | 1008.5 |
| 20260506030553 | 18 | 331 | 8.0 | 22.5 | 0.00 | 0.00 | 0.00 | 70 | 1008.5 |
| 20260506025543 | 18 | 360 | 4.8 | 19.3 | 0.00 | 0.00 | 0.00 | 70 | 1008.3 |
| 20260506025026 | 19 | 348 | 4.8 | 19.3 | 0.00 | 0.00 | 0.00 | 70 | 1008.4 |
| 20260506024535 | 19 | 338 | 4.8 | 17.7 | 0.00 | 0.00 | 0.00 | 70 | 1008.1 |
| 20260506024021 | 20 | 345 | 8.0 | 17.7 | 0.00 | 0.00 | 0.00 | 70 | 1008.0 |
| 20260506023527 | 20 | 14 | 1.6 | 9.7 | 0.00 | 0.00 | 0.00 | 70 | 1007.9 |
| 20260506023033 | 20 | 326 | 0.0 | 16.1 | 0.00 | 0.00 | 0.00 | 70 | 1007.8 |
| 20260506022540 | 20 | 330 | 4.8 | 16.1 | 0.00 | 0.00 | 0.00 | 69 | 1008.0 |
| 20260506022052 | 20 | 356 | 3.2 | 9.7 | 0.00 | 0.00 | 0.00 | 69 | 1007.8 |
| 20260506021543 | 20 | 335 | 1.6 | 8.0 | 0.00 | 0.00 | 0.00 | 69 | 1007.4 |
| 20260506021028 | 20 | 351 | 3.2 | 9.7 | 0.00 | 0.00 | 0.00 | 68 | 1007.2 |
| 20260506020559 | 20 | 360 | 0.0 | 14.5 | 0.00 | 0.00 | 0.00 | 68 | 1007.1 |
| 20260506020023 | 20 | 339 | 3.2 | 14.5 | 0.00 | 0.00 | 0.00 | 68 | 1007.2 |
| 20260506015524 | 20 | 333 | 0.0 | 17.7 | 0.00 | 0.00 | 0.00 | 68 | 1007.2 |
| 20260506015055 | 20 | 357 | 4.8 | 17.7 | 0.00 | 0.00 | 0.00 | 67 | 1007.0 |
| 20260506014526 | 20 | 350 | 1.6 | 19.3 | 0.00 | 0.00 | 0.00 | 67 | 1006.8 |
| 20260506014032 | 20 | 29 | 6.4 | 19.3 | 0.00 | 0.00 | 0.00 | 67 | 1006.5 |
| 20260506013537 | 20 | 347 | 1.6 | 19.3 | 0.00 | 0.00 | 0.00 | 67 | 1006.8 |
| 20260506013025 | 21 | 39 | 0.0 | 17.7 | 0.00 | 0.00 | 0.00 | 68 | 1006.8 |
| 20260506012532 | 21 | 16 | 1.6 | 17.7 | 0.00 | 0.00 | 0.00 | 67 | 1006.4 |
| 20260506012032 | 21 | 336 | 0.0 | 17.7 | 0.00 | 0.00 | 0.00 | 67 | 1006.1 |
| 20260506011537 | 21 | 355 | 6.4 | 17.7 | 0.00 | 0.00 | 0.00 | 66 | 1006.2 |
| 20260506011044 | 21 | 349 | 0.0 | 16.1 | 0.00 | 0.00 | 0.00 | 66 | 1006.2 |
| 20260506010528 | 21 | 31 | 1.6 | 17.7 | 0.00 | 0.00 | 0.00 | 66 | 1006.0 |
| 20260506010030 | 21 | 343 | 0.0 | 14.5 | 0.00 | 0.00 | 0.00 | 66 | 1005.9 |
| 20260506005544 | 21 | 346 | 1.6 | 17.7 | 0.00 | 0.00 | 0.00 | 66 | 1005.7 |
| 20260506005028 | 22 | 333 | 4.8 | 17.7 | 0.00 | 0.00 | 0.00 | 65 | 1005.7 |
| 20260506004532 | 22 | 347 | 1.6 | 16.1 | 0.00 | 0.00 | 0.00 | 65 | 1005.7 |
| 20260506004039 | 22 | 326 | 6.4 | 16.1 | 0.00 | 0.00 | 0.00 | 65 | 1005.5 |
| 20260506003527 | 22 | 326 | 4.8 | 19.3 | 0.00 | 0.00 | 0.00 | 65 | 1005.2 |
| 20260506003035 | 22 | 18 | 6.4 | 19.3 | 0.00 | 0.00 | 0.00 | 64 | 1005.1 |
| 20260506002539 | 22 | 355 | 1.6 | 14.5 | 0.00 | 0.00 | 0.00 | 64 | 1005.2 |
| 20260506002024 | 23 | 341 | 3.2 | 16.1 | 0.00 | 0.00 | 0.00 | 64 | 1005.3 |
| 20260506001532 | 23 | 345 | 4.8 | 19.3 | 0.00 | 0.00 | 0.00 | 64 | 1005.0 |
| 20260506001024 | 23 | 333 | 8.0 | 19.3 | 0.00 | 0.00 | 0.00 | 63 | 1004.9 |
| 20260506000525 | 23 | 341 | 1.6 | 16.1 | 0.00 | 0.00 | 0.00 | 62 | 1004.9 |
| 20260506000033 | 24 | 10 | 3.2 | 16.1 | 0.00 | 0.00 | 0.00 | 61 | 1004.9 |
| 20260505235539 | 24 | 8 | 3.2 | 14.5 | 0.00 | 0.00 | 0.00 | 61 | 1005.0 |
| 20260505235030 | 25 | 323 | 1.6 | 17.7 | 0.00 | 0.00 | 0.00 | 61 | 1004.9 |
| 20260505234537 | 25 | 331 | 1.6 | 17.7 | 0.00 | 0.00 | 0.00 | 60 | 1004.8 |
| 20260505234042 | 25 | 331 | 4.8 | 16.1 | 0.00 | 0.00 | 0.00 | 59 | 1004.8 |
| 20260505233528 | 25 | 349 | 6.4 | 19.3 | 0.00 | 0.00 | 0.00 | 59 | 1004.7 |
| 20260505233032 | 25 | 346 | 1.6 | 19.3 | 0.00 | 0.00 | 0.00 | 59 | 1004.6 |
| 20260505232524 | 25 | 306 | 1.6 | 19.3 | 0.00 | 0.00 | 0.00 | 59 | 1004.6 |
| 20260505232033 | 26 | 332 | 3.2 | 19.3 | 0.00 | 0.00 | 0.00 | 58 | 1004.8 |
| 20260505231537 | 26 | 315 | 8.0 | 16.1 | 0.00 | 0.00 | 0.00 | 58 | 1004.7 |
| 20260505231048 | 26 | 316 | 3.2 | 14.5 | 0.00 | 0.00 | 0.00 | 57 | 1004.6 |
| 20260505230600 | 26 | 304 | 6.4 | 11.3 | 0.00 | 0.00 | 0.00 | 56 | 1004.5 |
| 20260505230025 | 27 | 347 | 4.8 | 22.5 | 0.00 | 0.00 | 0.00 | 56 | 1004.5 |
| 20260505225524 | 27 | 308 | 3.2 | 22.5 | 0.00 | 0.00 | 0.00 | 56 | 1004.4 |
| 20260505225100 | 27 | 303 | 4.8 | 16.1 | 0.00 | 0.00 | 0.00 | 55 | 1004.3 |
| 20260505224524 | 27 | 10 | 1.6 | 11.3 | 0.00 | 0.00 | 0.00 | 55 | 1004.1 |
| 20260505224058 | 28 | 340 | 3.2 | 11.3 | 0.00 | 0.00 | 0.00 | 56 | 1003.9 |
| 20260505223525 | 28 | 293 | 1.6 | 11.3 | 0.00 | 0.00 | 0.00 | 56 | 1003.9 |
| 20260505223033 | 28 | 293 | 4.8 | 16.1 | 0.00 | 0.00 | 0.00 | 55 | 1004.0 |
| 20260505222542 | 28 | 303 | 3.2 | 16.1 | 0.00 | 0.00 | 0.00 | 55 | 1004.0 |
| 20260505222027 | 29 | 337 | 6.4 | 16.1 | 0.00 | 0.00 | 0.00 | 53 | 1003.9 |
| 20260505221531 | 29 | 339 | 3.2 | 17.7 | 0.00 | 0.00 | 0.00 | 52 | 1003.6 |
| 20260505221039 | 29 | 351 | 4.8 | 17.7 | 0.00 | 0.00 | 0.00 | 51 | 1003.6 |
| 20260505220523 | 29 | 295 | 1.6 | 11.3 | 0.00 | 0.00 | 0.00 | 49 | 1003.7 |
| 20260505220032 | 29 | 342 | 3.2 | 16.1 | 0.00 | 0.00 | 0.00 | 48 | 1003.5 |
| 20260505215544 | 30 | 326 | 4.8 | 16.1 | 0.00 | 0.00 | 0.00 | 47 | 1003.5 |
| 20260505215053 | 30 | 306 | 0.0 | 17.7 | 0.00 | 0.00 | 0.00 | 47 | 1003.5 |
| 20260505214553 | 30 | 320 | 0.0 | 17.7 | 0.00 | 0.00 | 0.00 | 46 | 1003.7 |
| 20260505214041 | 30 | 305 | 4.8 | 14.5 | 0.00 | 0.00 | 0.00 | 46 | 1003.8 |
| 20260505213524 | 30 | 307 | 0.0 | 17.7 | 0.00 | 0.00 | 0.00 | 46 | 1003.7 |
| 20260505213032 | 31 | 307 | 6.4 | 17.7 | 0.00 | 0.00 | 0.00 | 47 | 1003.6 |
| 20260505212540 | 30 | 314 | 1.6 | 17.7 | 0.00 | 0.00 | 0.00 | 46 | 1003.6 |
| 20260505212046 | 31 | 322 | 3.2 | 20.9 | 0.00 | 0.00 | 0.00 | 46 | 1003.5 |
| 20260505211528 | 31 | 335 | 6.4 | 20.9 | 0.00 | 0.00 | 0.00 | 47 | 1003.6 |
| 20260505211034 | 32 | 304 | 6.4 | 22.5 | 0.00 | 0.00 | 0.00 | 47 | 1003.6 |
| 20260505210524 | 32 | 260 | 16.1 | 25.7 | 0.00 | 0.00 | 0.00 | 48 | 1003.5 |
| 20260505210033 | 32 | 239 | 9.7 | 32.2 | 0.00 | 0.00 | 0.00 | 49 | 1003.7 |
| 20260505205541 | 32 | 254 | 19.3 | 32.2 | 0.00 | 0.00 | 0.00 | 46 | 1003.5 |
| 20260505205024 | 32 | 285 | 9.7 | 24.1 | 0.00 | 0.00 | 0.00 | 48 | 1003.8 |
| 20260505204534 | 32 | 265 | 6.4 | 24.1 | 0.00 | 0.00 | 0.00 | 49 | 1003.9 |
| 20260505204024 | 32 | 268 | 16.1 | 24.1 | 0.00 | 0.00 | 0.00 | 48 | 1003.6 |
| 20260505203529 | 32 | 259 | 16.1 | 27.4 | 0.00 | 0.00 | 0.00 | 48 | 1003.7 |
| 20260505203034 | 32 | 256 | 19.3 | 27.4 | 0.00 | 0.00 | 0.00 | 49 | 1003.8 |
| 20260505202538 | 32 | 249 | 16.1 | 25.7 | 0.00 | 0.00 | 0.00 | 50 | 1003.8 |
| 20260505202025 | 32 | 249 | 11.3 | 25.7 | 0.00 | 0.00 | 0.00 | 48 | 1003.8 |
| 20260505201537 | 32 | 247 | 12.9 | 24.1 | 0.00 | 0.00 | 0.00 | 50 | 1004.0 |
| 20260505201021 | 32 | 251 | 11.3 | 25.7 | 0.00 | 0.00 | 0.00 | 51 | 1004.1 |
| 20260505200526 | 32 | 268 | 16.1 | 32.2 | 0.00 | 0.00 | 0.00 | 51 | 1004.1 |
| 20260505200032 | 31 | 278 | 14.5 | 32.2 | 0.00 | 0.00 | 0.00 | 52 | 1004.0 |
| 20260505195521 | 31 | 251 | 22.5 | 30.6 | 0.00 | 0.00 | 0.00 | 51 | 1004.2 |
| 20260505195028 | 31 | 264 | 19.3 | 30.6 | 0.00 | 0.00 | 0.00 | 51 | 1004.1 |
| 20260505194532 | 31 | 245 | 19.3 | 30.6 | 0.00 | 0.00 | 0.00 | 54 | 1004.1 |
| 20260505194041 | 31 | 224 | 11.3 | 20.9 | 0.00 | 0.00 | 0.00 | 52 | 1004.1 |
| 20260505193542 | 31 | 264 | 1.6 | 22.5 | 0.00 | 0.00 | 0.00 | 56 | 1004.2 |
| 20260505193048 | 31 | 257 | 16.1 | 27.4 | 0.00 | 0.00 | 0.00 | 54 | 1004.2 |
| 20260505192533 | 31 | 263 | 6.4 | 27.4 | 0.00 | 0.00 | 0.00 | 57 | 1004.3 |
| 20260505192036 | 30 | 231 | 11.3 | 25.7 | 0.00 | 0.00 | 0.00 | 55 | 1004.2 |
| 20260505191521 | 30 | 195 | 6.4 | 25.7 | 0.00 | 0.00 | 0.00 | 57 | 1004.1 |
| 20260505191031 | 30 | 215 | 12.9 | 25.7 | 0.00 | 0.00 | 0.00 | 57 | 1004.1 |
| 20260505190523 | 30 | 223 | 11.3 | 24.1 | 0.00 | 0.00 | 0.00 | 58 | 1004.2 |
| 20260505190030 | 30 | 196 | 11.3 | 25.7 | 0.00 | 0.00 | 0.00 | 57 | 1004.1 |
| 20260505185532 | 29 | 227 | 19.3 | 29.0 | 0.00 | 0.00 | 0.00 | 58 | 1004.1 |
| 20260505185039 | 29 | 228 | 12.9 | 30.6 | 0.00 | 0.00 | 0.00 | 58 | 1004.1 |
| 20260505184545 | 30 | 227 | 17.7 | 30.6 | 0.00 | 0.00 | 0.00 | 58 | 1004.2 |
| 20260505184047 | 29 | 266 | 12.9 | 30.6 | 0.00 | 0.00 | 0.00 | 61 | 1004.1 |
| 20260505183552 | 28 | 217 | 16.1 | 30.6 | 0.00 | 0.00 | 0.00 | 60 | 1004.3 |
| 20260505183037 | 28 | 259 | 17.7 | 30.6 | 0.00 | 0.00 | 0.00 | 60 | 1004.3 |
| 20260505182521 | 28 | 205 | 20.9 | 29.0 | 0.00 | 0.00 | 0.00 | 60 | 1004.3 |
| 20260505182027 | 28 | 228 | 19.3 | 33.8 | 0.00 | 0.00 | 0.00 | 61 | 1004.3 |
| 20260505181536 | 28 | 254 | 19.3 | 33.8 | 0.00 | 0.00 | 0.00 | 61 | 1004.2 |
| 20260505181041 | 28 | 218 | 16.1 | 32.2 | 0.00 | 0.00 | 0.00 | 61 | 1004.2 |
| 20260505180533 | 28 | 228 | 19.3 | 32.2 | 0.00 | 0.00 | 0.00 | 62 | 1004.4 |
| 20260505180037 | 28 | 232 | 9.7 | 22.5 | 0.00 | 0.00 | 0.00 | 62 | 1004.4 |
| 20260505175525 | 28 | 227 | 6.4 | 24.1 | 0.00 | 0.00 | 0.00 | 62 | 1004.4 |
| 20260505175034 | 28 | 205 | 14.5 | 24.1 | 0.00 | 0.00 | 0.00 | 62 | 1004.4 |
| 20260505174526 | 28 | 231 | 12.9 | 27.4 | 0.00 | 0.00 | 0.00 | 62 | 1004.2 |
| 20260505174032 | 28 | 224 | 12.9 | 32.2 | 0.00 | 0.00 | 0.00 | 62 | 1004.3 |
| 20260505173537 | 28 | 205 | 16.1 | 29.0 | 0.00 | 0.00 | 0.00 | 63 | 1004.3 |
| 20260505173039 | 28 | 224 | 16.1 | 27.4 | 0.00 | 0.00 | 0.00 | 64 | 1004.2 |
| 20260505172545 | 28 | 211 | 17.7 | 27.4 | 0.00 | 0.00 | 0.00 | 64 | 1004.3 |
| 20260505172033 | 28 | 218 | 6.4 | 25.7 | 0.00 | 0.00 | 0.00 | 64 | 1004.3 |
| 20260505171541 | 28 | 224 | 14.5 | 27.4 | 0.00 | 0.00 | 0.00 | 64 | 1004.4 |
| 20260505171044 | 27 | 247 | 17.7 | 27.4 | 0.00 | 0.00 | 0.00 | 64 | 1004.4 |
| 20260505170525 | 27 | 245 | 6.4 | 25.7 | 0.00 | 0.00 | 0.00 | 65 | 1004.3 |
| 20260505170030 | 27 | 179 | 9.7 | 27.4 | 0.00 | 0.00 | 0.00 | 65 | 1004.4 |
| 20260505165531 | 27 | 239 | 16.1 | 27.4 | 0.00 | 0.00 | 0.00 | 65 | 1004.5 |
| 20260505165040 | 27 | 222 | 9.7 | 24.1 | 0.00 | 0.00 | 0.00 | 67 | 1004.5 |
| 20260505164525 | 26 | 217 | 8.0 | 24.1 | 0.00 | 0.00 | 0.00 | 68 | 1004.4 |
| 20260505164027 | 26 | 153 | 11.3 | 24.1 | 0.00 | 0.00 | 0.00 | 68 | 1004.4 |
| 20260505163537 | 26 | 202 | 6.4 | 32.2 | 0.00 | 0.00 | 0.00 | 69 | 1004.5 |
| 20260505163023 | 26 | 238 | 8.0 | 32.2 | 0.00 | 0.00 | 0.00 | 68 | 1004.4 |
| 20260505162532 | 26 | 220 | 11.3 | 29.0 | 0.00 | 0.00 | 0.00 | 68 | 1004.3 |
| 20260505162037 | 26 | 251 | 16.1 | 30.6 | 0.00 | 0.00 | 0.00 | 67 | 1004.4 |
| 20260505161543 | 26 | 205 | 14.5 | 30.6 | 0.00 | 0.00 | 0.00 | 69 | 1004.3 |
| 20260505161026 | 26 | 173 | 20.9 | 29.0 | 0.00 | 0.00 | 0.00 | 69 | 1004.3 |
| 20260505160530 | 26 | 202 | 16.1 | 29.0 | 0.00 | 0.00 | 0.00 | 70 | 1004.2 |
| 20260505153049 | 25 | 222 | 12.9 | 30.6 | 0.00 | 0.00 | 0.00 | 73 | 1004.2 |
| 20260505152555 | 24 | 228 | 4.8 | 30.6 | 0.00 | 0.00 | 0.00 | 73 | 1004.1 |
| 20260505152041 | 24 | 212 | 20.9 | 30.6 | 0.00 | 0.00 | 0.00 | 73 | 1004.1 |
| 20260505151530 | 24 | 216 | 19.3 | 29.0 | 0.00 | 0.00 | 0.00 | 73 | 1004.1 |
| 20260505151033 | 24 | 197 | 11.3 | 22.5 | 0.00 | 0.00 | 0.00 | 73 | 1004.1 |
| 20260505150545 | 24 | 206 | 3.2 | 24.1 | 0.00 | 0.00 | 0.00 | 74 | 1004.1 |
| 20260505140520 | 23 | 225 | 6.4 | 22.5 | 0.00 | 0.00 | 0.00 | 78 | 1003.8 |